This is the latest recevied weather packets stored in our database for station/object N5RPG. If no packets are shown the sender has not sent any weather packets the latest 10 day(s).
| Time | Temp. | Humidity | Pressure | Rain* | Wind** | Luminosity | Snow |
|---|---|---|---|---|---|---|---|
| 1777773101 | 15.56° C | 73% | 1020.1 hPa | 0 mm | - | 0 W/m² | - |
| 1777772797 | 15.56° C | 72% | 1020.1 hPa | 0 mm | - | 0 W/m² | - |
| 1777772495 | 16.11° C | 71% | 1020.2 hPa | 0 mm | - | 0 W/m² | - |
| 1777772192 | 16.11° C | 70% | 1020 hPa | 0 mm | - | 0 W/m² | - |
| 1777771890 | 16.67° C | 68% | 1020 hPa | 0 mm | - | 0 W/m² | - |
| 1777771587 | 16.67° C | 67% | 1020.1 hPa | 0 mm | - | 0 W/m² | - |
| 1777771284 | 17.22° C | 66% | 1019.9 hPa | 0 mm | - | 0 W/m² | - |
| 1777770980 | 17.22° C | 64% | 1020 hPa | 0 mm | - | 0 W/m² | - |
| 1777770677 | 17.78° C | 63% | 1019.9 hPa | 0 mm | - | 1 W/m² | - |
| 1777770374 | 17.78° C | 61% | 1019.7 hPa | 0 mm | - | 2 W/m² | - |
| 1777770071 | 18.33° C | 60% | 1019.7 hPa | 0 mm | - | 3 W/m² | - |
| 1777769768 | 18.89° C | 58% | 1019.7 hPa | 0 mm | - | 6 W/m² | - |
| 1777769465 | 19.44° C | 55% | 1019.7 hPa | 0 mm | - | 9 W/m² | - |
| 1777769161 | 20° C | 54% | 1019.7 hPa | 0 mm | - | 13 W/m² | - |
| 1777768860 | 20.56° C | 51% | 1019.6 hPa | 0 mm | - | 10 W/m² | - |
| 1777768556 | 20.56° C | 48% | 1019.5 hPa | 0 mm | - | 21 W/m² | - |
| 1777768253 | 21.11° C | 45% | 1019.5 hPa | 0 mm | - | 25 W/m² | - |
| 1777767950 | 21.11° C | 44% | 1019.6 hPa | 0 mm | - | 29 W/m² | - |
| 1777767647 | 21.67° C | 43% | 1019.5 hPa | 0 mm | - | 32 W/m² | - |
| 1777767343 | 21.67° C | 43% | 1019.6 hPa | 0 mm | - | 36 W/m² | - |
| 1777767041 | 21.67° C | 43% | 1019.5 hPa | 0 mm | - | 39 W/m² | - |
| 1777766738 | 22.22° C | 42% | 1019.5 hPa | 0 mm | - | 42 W/m² | - |
| 1777766435 | 22.78° C | 40% | 1019.4 hPa | 0 mm | - | 44 W/m² | - |
| 1777766131 | 23.33° C | 38% | 1019.3 hPa | 0 mm | - | 47 W/m² | - |
| 1777765830 | 23.33° C | 39% | 1019.5 hPa | 0 mm | - | 62 W/m² | - |
* Rain latest hour (hover to see other rain measurements)
** Current wind speed in m/s (hover to see current wind gust speed)